"Pseudo-MPEC" for P10ZCAz

Created 2020 May 27 22:07:08 UT using Find_Orb

Click here for an explanation of pseudo-MPECs

 
 Astrometry: 
     P10ZCAz  C2020 04 27esd\P6Y=Lhq%*+ZlRa)tTsy(2HapGM5@Astrometry8rKn.^14(nF51
     P10ZCAz  C2020 04 27d4NW@i::x3my;AI=redacted;I_7;1c?!t.[#Fk*#esclick=K+MF51
     P10ZCAz  C2020 04 27+^C'b`*GQy2nbQI\_*9;P^E-Js%*D0WPHT10n;1F:CnO=84!R*R6F51
     P10ZCAz  C2020 04 28.16535 12 01 09.69 -14 18 04.4    ~4S4b 22.4 GVNEOCPV06
     P10ZCAz  C2020 04 28.16852 12 01 09.54 -14 18 02.2    ~4S4b 22.3 GVNEOCPV06
     P10ZCAz  C2020 04 28.17169 12 01 09.40 -14 18 00.0    ~4S4b       VNEOCPV06
     P10ZCAz  C2020 04 28.17486 12 01 09.20 -14 17 57.6    ~4S4b       VNEOCPV06
     P10ZCAz  C2020 04 28O9:HxmN0wQdbaY#s%qssEje4k=w.m7U!c^1:5uPTYI3P@`#e*hyvF51
     P10ZCAz  C2020 04 28`=hereMHedJ[tKD2\8GXnwfM!TWu:4`EV:up1HvgiWa:UsQmt/;KF51
     P10ZCAz  C2020 04 28OB)S!xgwxVLnAt3aOpfor+uGRI0nO`6UCjWu1sexplanationL/)F51

Station data:
(F51) Pan-STARRS 1, Haleakala  (N20.707235 W156.255910)  US/Hawaii.
   Observers N. Primak, A. Schultz, S. Watters, J. Thiel, T. Goggia. Measurer
   PS1 Science Consortium. 1.8-m Ritchey-Chrétien + CCD.
(V06) Catalina Sky Survey-Kuiper  (N32.416847 W110.732550)  US/Arizona.
   Observers T. A. Pruyne, B. M. Africano, E. J. Christensen, G. A. Farneth,
   D. C. Fuls, A. R. Gibbs, A. D. Grauer, H. Gröller, J. A. Johnson, R. A.
   Kowalski, S. M. Larson, G. J. Leonard, D. Rankin, R. L. Seaman, F. C.
   Shelly. 1.55-m reflector + CCD.

Orbital elements:  P10ZCAz
   Perihelion 2020 Dec 31.219450 +/- 269 TT =  5:16:00 (JD 2459214.719450)
Epoch 2020 Apr 28.0 TT = JDT 2458967.5   Earth MOID: 0.6421   AutoNEOCP
M 290.47151079 +/- 70               (J2000 ecliptic)
n   0.28124198 +/- 0.0848           Peri.   36.84022 +/- 47
a   2.30718601 +/- 0.464            Node   265.26654 +/- 20
e   0.2853278 +/- 0.151             Incl.    8.50226 +/- 3.1
P   3.50                   H 19.3   G  0.15   U 11.1  SR
q 1.64888166 +/- 0.194    Q 2.96549037 +/- 0.949
From 10 observations 2020 Apr. 27-28 (24.8 hr); mean residual 0".46
Residuals in arcseconds: 
200427 F51  .09-  .17-    200428 V06  .04+  .22-    200428 F51  .23+  .08+    
200427 F51  .17+  .20+    200428 V06  .20-  .28+    200428 F51  .62+  .07-    
200427 F51  .09+  .07-    200428 V06  1.3-  .99+    
200428 V06  .42+  .72-    200428 F51  .02+  .30-    

Ephemerides (geocentric):
Date (UTC) HH   RA              Dec         delta   r     elong  mag " sig PA
---- -- -- --  -------------   -----------  ------ ------ -----  --- ---- ---
2020 05 27 22  11 57 10.222   -10 50 30.95  1.5082 2.1596 116.5 23.0 3821   6
2020 05 27 23  11 57 11.089   -10 50 20.26  1.5085 2.1595 116.4 23.0 3832   6
2020 05 28 00  11 57 11.959   -10 50 09.60  1.5088 2.1594 116.4 23.0 3843   6
2020 05 28 01  11 57 12.832   -10 49 58.96  1.5090 2.1592 116.4 23.0 3854   6
2020 05 28 02  11 57 13.708   -10 49 48.34  1.5093 2.1591 116.3 23.0 3865   6
2020 05 28 03  11 57 14.587   -10 49 37.75  1.5096 2.1589 116.3 23.0 3876   6
2020 05 28 04  11 57 15.470   -10 49 27.17  1.5099 2.1588 116.2 23.0 3887   6
2020 05 28 05  11 57 16.356   -10 49 16.62  1.5102 2.1587 116.2 23.0 3898   6
2020 05 28 06  11 57 17.245   -10 49 06.08  1.5105 2.1585 116.2 23.0 3910   6
2020 05 28 07  11 57 18.137   -10 48 55.57  1.5108 2.1584 116.1 23.0 3921   6
2020 05 28 08  11 57 19.033   -10 48 45.09  1.5111 2.1582 116.1 23.0 3932   6
2020 05 28 09  11 57 19.931   -10 48 34.62  1.5114 2.1581 116.1 23.0 3943   6
2020 05 28 10  11 57 20.833   -10 48 24.17  1.5116 2.1580 116.0 23.0 3954   6
2020 05 28 11  11 57 21.738   -10 48 13.75  1.5119 2.1578 116.0 23.0 3965   6
2020 05 28 12  11 57 22.646   -10 48 03.35  1.5122 2.1577 116.0 23.0 3977   6
2020 05 28 13  11 57 23.558   -10 47 52.97  1.5125 2.1575 115.9 23.0 3988   6
2020 05 28 14  11 57 24.472   -10 47 42.61  1.5128 2.1574 115.9 23.0 3999   6
2020 05 28 15  11 57 25.390   -10 47 32.28  1.5131 2.1573 115.8 23.0 4010   6
2020 05 28 16  11 57 26.311   -10 47 21.96  1.5134 2.1571 115.8 23.0 4022   6
2020 05 28 17  11 57 27.235   -10 47 11.67  1.5137 2.1570 115.8 23.0 4033   6
2020 05 28 18  11 57 28.162   -10 47 01.40  1.5140 2.1568 115.7 23.0 4044   6
2020 05 28 19  11 57 29.093   -10 46 51.15  1.5143 2.1567 115.7 23.0 4056   6
2020 05 28 20  11 57 30.026   -10 46 40.92  1.5146 2.1566 115.7 23.0 4067   6
2020 05 28 21  11 57 30.963   -10 46 30.72  1.5148 2.1564 115.6 23.0 4078   6
2020 05 28 22  11 57 31.903   -10 46 20.53  1.5151 2.1563 115.6 23.0 4090   6
2020 05 28 23  11 57 32.846   -10 46 10.37  1.5154 2.1561 115.6 23.0 4101   6
2020 05 29 00  11 57 33.793   -10 46 00.23  1.5157 2.1560 115.5 23.0 4113   6
2020 05 29 01  11 57 34.742   -10 45 50.11  1.5160 2.1559 115.5 23.0 4124   6
2020 05 29 02  11 57 35.695   -10 45 40.01  1.5163 2.1557 115.4 23.0 4136   6
2020 05 29 03  11 57 36.650   -10 45 29.94  1.5166 2.1556 115.4 23.0 4147   6
2020 05 29 04  11 57 37.609   -10 45 19.89  1.5169 2.1554 115.4 23.0 4158   6
2020 05 29 05  11 57 38.572   -10 45 09.85  1.5172 2.1553 115.3 23.0 4170   6
2020 05 29 06  11 57 39.537   -10 44 59.84  1.5175 2.1552 115.3 23.0 4182   6
2020 05 29 07  11 57 40.505   -10 44 49.86  1.5178 2.1550 115.3 23.0 4193   6
2020 05 29 08  11 57 41.477   -10 44 39.89  1.5180 2.1549 115.2 23.0 4205   6
2020 05 29 09  11 57 42.451   -10 44 29.95  1.5183 2.1547 115.2 23.0 4216   6
2020 05 29 10  11 57 43.429   -10 44 20.02  1.5186 2.1546 115.2 23.0 4228   6
2020 05 29 11  11 57 44.410   -10 44 10.12  1.5189 2.1545 115.1 23.0 4239   6
2020 05 29 12  11 57 45.394   -10 44 00.24  1.5192 2.1543 115.1 23.0 4251   6
2020 05 29 13  11 57 46.382   -10 43 50.39  1.5195 2.1542 115.0 23.0 4263   6
2020 05 29 14  11 57 47.372   -10 43 40.55  1.5198 2.1540 115.0 23.0 4274   6
2020 05 29 15  11 57 48.366   -10 43 30.74  1.5201 2.1539 115.0 23.0 4286   6
2020 05 29 16  11 57 49.363   -10 43 20.94  1.5204 2.1538 114.9 23.0 4298   6
2020 05 29 17  11 57 50.362   -10 43 11.17  1.5207 2.1536 114.9 23.0 4309   6
2020 05 29 18  11 57 51.365   -10 43 01.43  1.5210 2.1535 114.9 23.0 4321   6
2020 05 29 19  11 57 52.372   -10 42 51.70  1.5213 2.1533 114.8 23.0 4333   6
2020 05 29 20  11 57 53.381   -10 42 41.99  1.5216 2.1532 114.8 23.1 4345   6
2020 05 29 21  11 57 54.393   -10 42 32.31  1.5219 2.1531 114.8 23.1 4356   6